Regional Weather Roundup
Issued by NWS Upton, NY

Current Version | Previous Version | Graphics & Text | Print | Product List | Glossary Off
Versions: 1 2 3 4 5 6 7 8 9 10 11 12 13 14 15 16 17 18 19 20 21 22 23 24 25 26 27 28 29 30 31 32 33 34 35 36 37 38 39 40 41 42 43 44 45 46 47 48 49 50

000
ASUS41 KOKX 230609
RWROKX

REGIONAL WEATHER ROUNDUP
NATIONAL WEATHER SERVICE NEW YORK NY
200 AM EDT SUN JUL 23 2017

NOTE: "FAIR" INDICATES FEW OR NO CLOUDS BELOW 12,000 FEET WITH NO
SIGNIFICANT WEATHER AND/OR OBSTRUCTIONS TO VISIBILITY.

NYZ071-072-176-178-NJZ106-104-230700-
NEW YORK CITY METRO AREA

CITY           SKY/WX    TMP DP  RH WIND       PRES   REMARKS
Central Park   CLOUDY    72  70  93 VRB5      29.76F FOG
Bronx Bot Gard   N/A     72  70  94 E1        29.75F
LaGuardia APRT LGT RAIN  73  71  93 VRB5      29.72F
Kennedy INTL   RAIN      71  71 100 NE10      29.74F FOG
Breezy Point     N/A     70 N/A N/A E7          N/A
Newark/Liberty CLOUDY    71  71 100 E3        29.74F FOG
Teterboro      DRIZZLE   72  70  93 CALM      29.72F
$$

NYZ177-179-078>081-230700-
LONG ISLAND NEW YORK

CITY           SKY/WX    TMP DP  RH WIND       PRES   REMARKS
Jones Beach      N/A     68 N/A N/A E7          N/A
Matinecock PT    N/A     72 N/A N/A S3          N/A
Farmingdale    RAIN      71  69  93 SE5       29.74S FOG
MacArthur/ISP  LGT RAIN  71  69  93 E3        29.73S
Shirley        LGT RAIN  73  71  93 SE5       29.73F
Mt Sinai Harb    N/A    N/A N/A N/A E3          N/A
Westhampton    LGT RAIN  73  70  90 S3          N/A
East Hampton   CLOUDY    72  66  80 NE3       29.73F
Montauk          N/A     73  67  81 CALM      29.75F
$$

NYZ052-065-067-230700-
HUDSON VALLEY

CITY           SKY/WX    TMP DP  RH WIND       PRES   REMARKS
White Plains   NOT AVBL
Larchmont Harb   N/A     72 N/A N/A S1          N/A
Croton O-T Hud   N/A     73 N/A N/A NE1         N/A
Newburgh       CLOUDY    72  68  88 CALM      29.78S
Montgomery     CLOUDY    71  67  87 NE6       29.76F
Poughkeepsie   CLOUDY    71  66  84 N3        29.75F
Albany         PTCLDY    67  63  87 N6        29.79F
$$

NJZ001-105-106-008-010-013-015-019>022-104-230700-
NEW JERSEY

CITY           SKY/WX    TMP DP  RH WIND       PRES   REMARKS
Newark/Liberty CLOUDY    71  71 100 E3        29.74F FOG
Teterboro      DRIZZLE   72  70  93 CALM      29.72F
Caldwell       CLOUDY    70  69  97 CALM      29.75F
Somerville     CLOUDY    73  72  96 CALM      29.72F
Linden         CLOUDY    72  69  92 E8        29.74S
Perth Amboy      N/A     72 N/A N/A NE8         N/A
Sussex         CLOUDY    71  69  93 NE3       29.76F
Andover          N/A     70  69  97 CALM      29.77F
Trenton        CLOUDY    73  71  93 CALM      29.74S
Millville      CLOUDY    77  74  90 SW9       29.76R
Atlantic City  CLOUDY    79  72  79 W9        29.75S
Wrightstown    MOCLDY    73  73 100 SE2       29.72S
Toms River     CLOUDY    75  72  90 W7        29.74S
Belmar         CLOUDY    73  72  94 N7        29.74R
$$

PAZ047>061-062-071-230700-
EASTERN PENNSYLVANIA

CITY           SKY/WX    TMP DP  RH WIND       PRES   REMARKS
Philadelphia   MOCLDY    79  72  79 SW12      29.74F
Allentown      CLOUDY    72  69  90 CALM      29.76S
Scranton       CLOUDY    72  70  93 E3        29.78F
$$

CTZ002-004>006-009-010-012-RIZ004-006-007-MAZ004-011-015-230700-
SOUTHERN NEW ENGLAND
 IN CT

CITY           SKY/WX    TMP DP  RH WIND       PRES   REMARKS
Bradley INTL   CLOUDY    70  65  84 N3        29.77F
Hartford       CLOUDY    74  68  81 N6        29.75F
Danbury        CLOUDY    73  68  84 NE3       29.77F
Wtrbury/Oxford CLOUDY    72  63  73 CALM      29.77F
Bridgeport     CLOUDY    75  70  84 NE6       29.73F
Meriden        CLOUDY    71  68  90 CALM      29.75F
New Haven      CLOUDY    74  68  81 N6        29.74F
Chester        FAIR      72  68  88 CALM      29.76F
Groton         CLOUDY    72  66  81 N5        29.74F
Wilimantic     CLOUDY    72  70  93 N5        29.76F

 IN RI

CITY           SKY/WX    TMP DP  RH WIND       PRES   REMARKS
Providence     CLOUDY    73  66  78 NW6       29.76F
Block Island   CLOUDY    72  70  93 CALM      29.74F
Westerly       CLOUDY    71  68  90 N8        29.75F
 IN MA

CITY           SKY/WX    TMP DP  RH WIND       PRES   REMARKS
Boston         CLOUDY    71  66  84 SE3       29.76F
Worcester      CLOUDY    68  59  73 NW6       29.80F
Westfield      CLOUDY    68  66  93 CALM      29.77F
Provincetown   CLOUDY    70  67  90 S3        29.77F
Nantucket      CLOUDY    67  66  97 CALM      29.76F
$$

ANZ330-335-338-340-345-350-353-355-230700-
COASTAL MARINE OBSERVATIONS


STATION/POSITION TIME  SKY/WX   TEMP    WIND        PRES    VSBY  WAVE
                                AIR SEA DIR/SP/G                  HT/PER
                 (UTC)          (F)     (DEG/KT/KT) (MB)    (MI)  (FT/S)
NY HARB ENTRANCE 0450            74 76   70/ 10/ 14 1006.0          2/ 6
20 S FIRE ISLAND 0550            72 77   60/ 14/ 16 1005.3          2/ 6
GREAT SOUTH BAY  0530            74 83  100/ 10/ 12   N/A
23 SSW MONTAUK P 0450            76 77              1007.8          2/ 9
15 E BARNEGAT LI 0530               78                N/A           3/ 7
HUDSON CANYON    0450            80 81  210/  4/  6 1006.3          3/ 6
KINGS POINT      0536               72  190/  4/  6 1006.9
EXECUTION ROCKS  0545            74     280/  4/  6   N/A
CENTRAL LI SOUND 0545            73      70/  6/  8   N/A           0
EASTERN LI SOUND NOT AVBL
ROBBINS REEF     0542                    60/  9/ 11 1007.5
$$


>>>>>>>>>>>>>>>>>>>>>>>>>>>> KEY <<<<<<<<<<<<<<<<<<<<<<<<<<<
>                                                          <
>     SKY/WX - Sky Condition/Present Weather               <
>     TMP    - Temperature in Fahrenheit                   <
>     DP     - Dew Point in Fahrenheit                     <
>     RH     - Relative Humidity in Percent                <
>     WIND   - Direction (from) and Speed in MPH           <
>     PRES   - Mean Sea Level Pressure (inches of Hg)      <
>     WCI    - Wind Chill Index                            <
>     VSB    - VISIBILITY IN MILES                         <
>     HX     - HEAT INDEX                                  <
>     TC     - TEMPERATURE IN CELSIUS                      <
>     VRB    - VARIABLE WIND DIRECTION                     <
>                                                          <
>>>>>>>>>>>>>>>>>>>>>>>>>>>> KEY <<<<<<<<<<<<<<<<<<<<<<<<<<<



USA.gov is the U.S. government's official web portal to all federal, state and local government web resources and services.